This is the latest recevied weather packets stored in our database for station/object DM8MH-13. If no packets are shown the sender has not sent any weather packets the latest 10 day(s).
| Time | Temp. | Humidity | Pressure | Rain* | Wind** | Luminosity | Snow |
|---|---|---|---|---|---|---|---|
| 1788467471 | 19.44° C | 81% | 1016.4 hPa | 0 mm | - | 0 W/m² | - |
| 1788466871 | 19.44° C | 81% | 1016.6 hPa | 0 mm | - | 0 W/m² | - |
| 1788466270 | 19.44° C | 81% | 1016.8 hPa | 0 mm | - | 0 W/m² | - |
| 1788465670 | 19.44° C | 81% | 1016.7 hPa | 0 mm | - | 0 W/m² | - |
| 1788465070 | 19.44° C | 81% | 1016.7 hPa | 0 mm | - | 0 W/m² | - |
| 1788464470 | 19.44° C | 81% | 1016.7 hPa | 0 mm | - | 0 W/m² | - |
| 1788463871 | 19.44° C | 80% | 1016.8 hPa | 0 mm | - | 0 W/m² | - |
| 1788463271 | 19.44° C | 80% | 1016.7 hPa | 0 mm | - | 0 W/m² | - |
| 1788462670 | 19.44° C | 79% | 1016.6 hPa | 0 mm | - | 0 W/m² | - |
| 1788462070 | 19.44° C | 79% | 1016.8 hPa | 0 mm | - | 0 W/m² | - |
| 1788461470 | 19.44° C | 79% | 1016.7 hPa | 0 mm | - | 0 W/m² | - |
| 1788460870 | 18.89° C | 80% | 1016.8 hPa | 0 mm | - | 0 W/m² | - |
| 1788460271 | 18.89° C | 80% | 1016.9 hPa | 0 mm | - | 0 W/m² | - |
| 1788459671 | 18.89° C | 80% | 1016.8 hPa | 0 mm | - | 0 W/m² | - |
| 1788459070 | 19.44° C | 79% | 1016.8 hPa | 0 mm | - | 0 W/m² | - |
| 1788458470 | 19.44° C | 78% | 1016.7 hPa | 0 mm | - | 0 W/m² | - |
| 1788457870 | 19.44° C | 77% | 1016.7 hPa | 0 mm | - | 2 W/m² | - |
| 1788457270 | 20° C | 76% | 1016.8 hPa | 0 mm | - | 11 W/m² | - |
| 1788456670 | 20° C | 76% | 1016.6 hPa | 0 mm | - | 18 W/m² | - |
| 1788456070 | 20° C | 76% | 1016.5 hPa | 0 mm | - | 36 W/m² | - |
| 1788455470 | 20.56° C | 76% | 1016.4 hPa | 0 mm | - | 55 W/m² | - |
| 1788454869 | 20.56° C | 76% | 1016.3 hPa | 0 mm | - | 48 W/m² | - |
| 1788454270 | 20.56° C | 75% | 1016.4 hPa | 0 mm | - | 84 W/m² | - |
| 1788453670 | 20.56° C | 75% | 1016.3 hPa | 0 mm | - | 152 W/m² | - |
| 1788453071 | 20.56° C | 75% | 1016.3 hPa | 0 mm | - | 97 W/m² | - |
* Rain latest hour (hover to see other rain measurements)
** Current wind speed in m/s (hover to see current wind gust speed)